Indianapolis, IN

7:26 PM EDT on September 22, 2019 (GMT -0400)
Indianapolis International

Weather History for KIND - August, 2019

Change the Weather History Date:

Monday, August 19, 2019

  Actual Average Record
Temperature  
Mean Temperature 78 °F 74 °F  
Max Temperature 89 °F 84 °F 100 °F (1936)
Min Temperature 68 °F 64 °F 50 °F (1896)
Degree Days  
Heating Degree Days 0 0  
Month to date heating degree days 0  
Since 1 June heating degree days 17  
Since 1 July heating degree days 1  
Cooling Degree Days 14 9  
Month to date cooling degree days 187  
Year to date cooling degree days 820  
Since 1 June cooling degree days 736  
Growing Degree Days 28 (Base 50)    
Moisture  
Dew Point 69 °F    
Average Humidity 82    
Maximum Humidity 100    
Minimum Humidity 52    
Precipitation  
Precipitation 0.00 in 0.10 in 1.65 in (1906)
Month to date precipitation 1.92  
Year to date precipitation 28.12  
Snow  
Snow - 0.00 in 0.00 in ()
Month to date snowfall 0.0  
Since 1 June snowfall 0.0  
Since 1 July snowfall 0.0  
Snow Depth -    
Sea Level Pressure  
Sea Level Pressure 30.00 in    
Wind  
Wind Speed 4 mph ()    
Max Wind Speed 7 mph    
Max Gust Speed -    
Visibility 9.9 miles    
Events Fog , Rain    
T = Trace of Precipitation, MM = Missing Value Source: Averaged Metar Reports

Daily Weather History Graph

Daily Weather History Graph

Search for Another Location

Airport or City:

Astronomy

Aug. 19, 2019 Rise Set
Actual Time 7:00 AM EDT 8:36 PM EDT
Civil Twilight 6:32 AM EDT 9:04 PM EDT
Nautical Twilight 5:57 AM EDT 9:38 PM EDT
Astronomical Twilight 5:21 AM EDT 10:15 PM EDT
Moon 10:57 PM EDT (8/19) 10:41 AM EDT (8/19)
Length of Visible Light 14h 32m
Length of Day
13h 35m
Waning Gibbous, 85% of the Moon is Illuminated
Aug 19
Waning Gibbous
Aug 23
Last Quarter
Aug 30
New
Sep 5
First Quarter
Sep 14
Full

Hourly Weather History & Observations

Time (EDT) Temp. Heat Index Dew Point Humidity Pressure Visibility Wind Dir Wind Speed Gust Speed Precip Events Conditions
12:16 AM 71.1 °F - 69.1 °F 93% 29.97 in 10.0 mi WSW 6.9 mph - 0.00 in Rain Light Rain
12:54 AM 71.1 °F - 69.1 °F 93% 29.97 in 10.0 mi South 4.6 mph - 0.00 in   Mostly Cloudy
1:54 AM 70.0 °F - 69.1 °F 97% 29.97 in 10.0 mi South 6.9 mph - N/A   Mostly Cloudy
2:54 AM 71.1 °F - 69.1 °F 93% 29.96 in 10.0 mi SSE 5.8 mph - N/A   Overcast
3:54 AM 70.0 °F - 68.0 °F 93% 29.94 in 10.0 mi South 3.5 mph - N/A   Scattered Clouds
4:54 AM 70.0 °F - 68.0 °F 93% 29.96 in 10.0 mi SW 3.5 mph - N/A   Partly Cloudy
5:31 AM 69.1 °F - 68.0 °F 96% 29.98 in 10.0 mi SW 3.5 mph - N/A   Mostly Cloudy
5:54 AM 68.0 °F - 68.0 °F 100% 29.96 in 10.0 mi SW 3.5 mph - N/A   Mostly Cloudy
6:01 AM 68.0 °F - 66.9 °F 96% 29.98 in 10.0 mi SSW 5.8 mph - N/A   Scattered Clouds
6:54 AM 68.0 °F - 66.9 °F 96% 29.98 in 10.0 mi SW 3.5 mph - N/A Fog Patches of Fog
7:54 AM 70.0 °F - 68.0 °F 93% 30.01 in 9.0 mi SW 3.5 mph - N/A   Partly Cloudy
8:54 AM 72.0 °F - 69.1 °F 91% 30.02 in 9.0 mi Calm Calm - N/A   Clear
9:54 AM 75.9 °F - 70.0 °F 82% 30.01 in 9.0 mi SW 6.9 mph - N/A   Partly Cloudy
10:54 AM 79.0 °F - 71.1 °F 77% 30.02 in 10.0 mi SW 4.6 mph - N/A   Partly Cloudy
11:54 AM 82.0 °F 86.7 °F 72.0 °F 71% 30.02 in 10.0 mi Calm Calm - N/A   Partly Cloudy
12:33 PM 84.0 °F 90.2 °F 73.0 °F 69% 30.05 in 10.0 mi South 5.8 mph - N/A   Mostly Cloudy
12:54 PM 84.0 °F 89.6 °F 72.0 °F 67% 30.03 in 10.0 mi SW 4.6 mph - N/A   Mostly Cloudy
1:54 PM 88.0 °F 93.8 °F 71.1 °F 57% 30.02 in 10.0 mi West 5.8 mph - N/A   Mostly Cloudy
2:33 PM 88.0 °F 93.8 °F 71.1 °F 57% 30.04 in 10.0 mi West 6.9 mph - N/A   Mostly Cloudy
2:54 PM 89.1 °F 94.1 °F 70.0 °F 53% 30.01 in 10.0 mi SW 5.8 mph - N/A   Mostly Cloudy
3:54 PM 89.1 °F 93.7 °F 69.1 °F 52% 30.00 in 10.0 mi West 4.6 mph - N/A   Mostly Cloudy